Temp
14 14 14 14 14 14 14 15 16 15 16 15 16 16 15 16 17 17 17 16 16 15
13 14 13 14 14 14 14 14 14 14 15 15 15 15 14 15 16 16 16 15 16 14
12 12 13 13 13 13 13 13 14 14 14 14 14 14 14 14 14 14 15 16 14 13
11 11 12 12 11 12 12 13 13 13 13 14 14 14 13 13 13 14 14 14 13 13
10 11 11 10 11 11 12 12 13 13 13 13 13 13 13 13 13 13 14 14 13 13
10 10 10 10 11 11 11 11 11 11 11 11 11 12 12 12 12 12 12 12 12 13
8 9 9 9 9 10 10 10 10 10 10 10 10 10 11 11 11 11 11 11 11 11
8 8 9 9 9 9 9 8 8 8 9 9 9 9 9 9 9 9 10 10 10 10
7 7 7 7 7 7 7 7 7 7 7 7 7 8 8 8 8 8 8 9 9 9
6 6 6 6 6 6 6 6 6 6 6 6 6 7 7 7 7 7 7 8 8 8
5 5 5 5 5 4 4 4 4 4 4 5 5 5 6 6 7 6 7 7 7 7
5 5 4 4 4 3 3 3 3 3 3 3 4 4 4 4 4 5 6 6 6 6
4 4 3 3 3 2 2 2 2 2 2 3 2 3 3 3 3 4 4 4 5 6
3 3 2 2 2 2 1 1 1 1 1 1 2 2 2 3 3 3 3 3 4 4
Height
723 728 733 735 739 744 745 752 754 758 761 766 768 769 775 779 778 779 780 783 781 783
726 730 732 734 741 746 749 752 755 758 761 764 765 767 771 772 774 775 775 777 775 779
729 732 737 741 744 747 750 752 756 759 761 762 764 766 767 767 767 768 766 766 772 772
733 736 739 742 744 747 750 752 753 755 757 758 759 760 761 760 761 761 763 766 765 765
743 745 746 748 750 752 753 753 752 752 752 752 754 754 755 755 755 756 757 759 759 759
745 748 750 751 752 753 754 755 755 755 754 753 752 753 753 753 753 753 752 754 754 752
752 753 754 755 755 755 755 754 753 752 752 752 753 753 751 750 750 749 749 749 749 749
756 756 757 756 756 756 755 754 755 754 753 753 751 751 749 748 747 747 745 744 743 743
762 761 761 761 759 758 756 755 754 754 752 751 752 751 749 747 745 742 741 739 738 738
762 762 760 759 757 756 756 755 754 754 752 750 748 747 745 744 742 740 740 737 735 732
765 764 761 760 761 761 759 757 755 753 751 748 747 745 742 740 737 735 733 734 733 730
766 765 764 764 762 759 757 755 754 752 748 746 744 742 740 738 734 731 728 727 726 725
771 769 767 766 762 761 759 756 755 751 746 743 739 739 738 737 734 729 725 721 719 718
768 765 765 762 759 757 754 753 753 748 744 741 738 737 734 730 729 724 719 716 713 711
Wind_Speed
21 19 17 21 21 16 11 12 11 12 12 14 14 11 16 21 21 22 20 25 26 28
18 15 17 17 14 13 10 11 13 16 16 18 20 24 30 31 30 27 25 29 30 33
20 20 14 11 8 4 6 10 15 19 24 27 28 31 32 32 31 32 33 32 32 32
19 16 12 10 8 5 1 2 5 12 23 27 27 29 30 31 30 27 28 29 31 31
20 18 16 13 9 6 3 0 2 5 7 7 10 11 15 22 22 22 25 26 27 29
22 20 17 14 11 9 8 7 6 6 6 7 8 9 11 14 17 20 21 23 26 26
22 20 18 16 15 12 11 10 10 10 10 10 11 12 12 13 15 18 20 21 22 24
20 18 17 17 16 15 15 15 13 13 12 12 13 13 13 14 16 18 20 21 22 24
18 18 18 17 16 16 16 17 16 15 16 16 17 16 17 17 19 20 20 22 24 24
19 20 20 18 18 19 19 20 20 19 19 20 20 19 18 19 20 22 24 24 24 24
19 20 19 18 18 18 18 20 21 21 21 21 21 21 21 20 22 22 23 26 27 26
18 19 19 17 17 19 21 24 23 23 23 23 25 23 24 23 24 26 26 26 27 28
13 12 14 15 15 17 17 19 21 21 22 22 22 21 20 20 21 20 21 24 27 26
14 14 14 17 18 19 20 20 20 23 25 21 20 20 21 21 22 19 20 21 22 25
Wind_Direction
172 171 171 168 178 188 187 208 210 216 215 223 221 238 256 251 245 243 247 252 260 261
153 147 128 147 158 180 190 201 221 231 234 246 256 254 259 263 258 255 259 263 275 258
78 97 100 104 106 133 211 214 224 231 236 244 247 250 257 260 260 261 266 269 254 256
68 67 75 79 76 74 130 226 243 251 255 255 261 257 260 259 263 262 258 256 257 253
86 86 82 78 74 70 74 62 267 268 271 267 260 263 260 252 252 251 255 255 260 267
74 73 69 65 61 51 37 24 8 350 333 319 308 289 273 268 269 270 267 269 268 263
61 58 53 49 44 38 28 17 5 354 345 333 320 311 303 293 283 277 274 272 270 270
48 45 40 34 29 24 21 16 4 351 344 333 323 316 309 301 297 291 286 280 274 269
39 34 29 23 20 15 11 7 359 355 347 338 328 325 316 307 300 293 287 283 280 277
26 20 16 10 8 5 1 355 352 346 341 334 329 327 318 312 307 299 292 287 282 279
14 10 10 6 2 355 352 347 342 336 334 330 325 324 322 314 305 302 296 287 282 280
3 358 357 351 347 346 340 336 334 327 322 322 318 325 322 320 316 304 297 292 286 280
346 343 343 336 333 331 327 323 322 325 329 324 315 312 313 314 313 304 292 287 287 284
343 342 340 340 334 331 329 324 316 319 320 316 313 312 310 311 305 309 304 295 285 276